Back to catalog

GSAT 29

AliveCommunicationsGEO
NORAD 43698·PAYLOAD·🇮🇳 India

Launched Nov 14, 2018 from Satish Dhawan Space Centre

Loading…

TLE

FreshSource: Space-Track

Epoch: Sep 14, 2026, 12:21 UTC

1 43698U 18089A   26257.51472866  .00000076  00000-0  00000-0 0  9990
2 43698   0.0487 269.0779 0001600 255.1830  69.6051  1.00275967 28680

Track GSAT 29 in real time with AllMySat

Download on the App Store